Location: Czekan�w
(50.3488°N, 18.7344°E)
Time: 03:27:39
(UTC+00:00)

Daily predictions for brighter satellites

Satellite Brightness Start Highest point End
(mag) Time Altitude Azimuth Time Altitude Azimuth Time Altitude Azimuth
USA 215 4.3 01:28:45 10° ENE 01:32:38 39° ENE 01:32:38 39° ENE
CZ-4C R/B 4.0 01:44:29 27° ENE 01:44:29 27° ENE 01:47:31 10° NE
Cosmos 2333 Rocket 4.1 01:49:49 26° NNE 01:49:49 26° NNE 01:52:10 10° NNE
NOSS 3-1 (A) 4.3 01:51:47 60° NE 01:51:47 60° NE 01:59:44 10° ESE
ADEOS II 4.5 01:59:11 10° N 02:00:07 15° N 02:00:07 15° N
ATLAS CENTAUR R/B 4.2 02:06:57 17° E 02:06:57 17° E 02:08:41 10° ENE
IDEFIX/ARIANE 42P 4.2 02:06:53 10° NNE 02:09:37 30° NNE 02:09:37 30° NNE
Cosmos 2322 Rocket 4.4 02:14:37 16° N 02:14:37 16° N 02:16:23 10° N
Cosmos 2237 Rocket 3.1 02:21:11 44° NE 02:21:11 44° NE 02:25:05 10° NNE
ATLAS 2AS CENTAUR R/B 4.2 02:23:04 28° NNW 02:24:56 31° N 02:31:34 10° ENE
Cosmos 2219 Rocket 3.5 02:33:02 31° N 02:33:02 31° N 02:36:12 10° NNE
Nadezhda 3 Rocket 4.0 02:41:13 75° NNE 02:41:13 75° NNE 02:46:59 10° N
Cosmos 2360 Rocket 4.1 02:44:16 18° NNW 02:44:16 18° NNW 02:46:43 10° NNE
ADEOS 4.0 02:39:14 10° NNE 02:44:12 60° E 02:44:12 60° E
COSMOS 2428 3.9 02:46:26 32° N 02:46:26 32° N 02:50:00 10° NNE
Meteor 2-10 Rocket 4.4 02:46:07 36° SE 02:47:45 47° E 02:52:43 10° NNE
NOSS 3-1 (C) 4.0 02:49:14 63° SW 02:49:14 63° SW 02:57:08 10° SSE
Cosmos 1241 Rocket 4.3 02:53:00 82° NNW 02:53:00 82° NNW 02:59:07 10° NE
Cosmos 1943 Rocket 3.1 02:49:41 21° NNW 02:53:07 45° NE 02:58:22 10° SE
Cosmos 2297 4.5 02:55:30 40° SSE 02:55:30 40° SSE 02:59:00 10° SSE
Lacrosse 5 2.1 02:59:21 66° NE 02:59:21 66° NE 03:04:04 10° ESE
SL-16 R/B 2.7 02:59:40 43° SSE 03:01:13 57° ESE 03:06:47 10° NE
Cosmos 292 Rocket 4.3 03:04:51 53° SE 03:04:51 53° SE 03:08:32 10° SSE
CZ-2C R/B 2.7 03:01:53 10° NNE 03:07:06 70° ESE 03:08:22 50° SSE
Cosmos 1980 4.0 03:09:29 52° NNW 03:09:29 52° NNW 03:14:26 10° NNE
SL-16 R/B 4.5 03:11:43 11° NNW 03:12:04 11° NNW 03:13:44 10° N
Cosmos 2369 Rocket 3.0 03:08:02 11° NNW 03:13:24 51° NE 03:18:57 10° SE
NOSS 2-1 (E) 4.4 03:14:36 39° E 03:14:36 39° E 03:17:37 10° NE
Cosmos 1535 Rocket 4.3 03:08:33 10° NNW 03:14:48 71° W 03:20:56 10° S
USA 215 3.5 03:11:50 10° ENE 03:18:12 56° NNW 03:20:00 43° WNW
Meteor 2-3 Rocket 4.1 03:16:25 10° N 03:22:09 67° ENE 03:27:54 10° SSE
NOSS 0 Rocket 4.3 03:24:36 44° NW 03:24:53 44° NW 03:30:51 10° NNE
CZ-4C R/B 2.5 03:29:40 47° WNW 03:30:22 49° NW 03:36:35 10° NE
Cosmos 2333 Rocket 3.6 03:31:49 23° NNW 03:31:49 23° NNW 03:35:59 10° NNE
Cosmos 1743 Rocket 4.0 03:30:38 10° N 03:34:56 61° ENE 03:39:13 10° SSE
USA 229 DEB 4.4 03:35:49 36° SW 03:35:49 36° SW 03:42:09 10° S
USA 229 4.3 03:35:52 36° WSW 03:35:52 36° WSW 03:42:14 10° S
Cosmos 1484 Rocket 3.3 03:36:15 10° NNE 03:40:08 58° E 03:44:04 10° S
ALOS 3.4 03:36:20 10° NNE 03:40:49 44° E 03:45:16 10° S
CZ-4B R/B 2.8 03:37:12 10° NNE 03:40:57 71° ESE 03:42:15 37° S
NOSS 3-1 (A) 4.2 03:39:16 32° WNW 03:42:33 49° WSW 03:50:40 10° SSE
ATLAS CENTAUR R/B 1.5 03:43:09 58° WSW 03:43:59 77° NW 03:48:26 10° NE
STARLINK-1129 3.6 03:45:35 50° NNE 03:45:35 50° NNE 03:48:16 10° ENE
H-2A R/B 2.5 03:41:06 10° NNE 03:45:28 89° W 03:48:34 20° SSW
STARLINK-1149 4.3 03:46:48 30° NE 03:46:48 30° NE 03:48:24 10° ENE
STARLINK-1134 3.5 03:47:15 51° NNE 03:47:15 51° NNE 03:50:00 10° ENE
STARLINK-1132 4.0 03:49:25 34° NE 03:49:25 34° NE 03:51:15 10° ENE
STARLINK-1135 3.4 03:49:25 53° NNE 03:49:25 53° NNE 03:52:15 10° ENE
Cosmos 1842 Rocket 3.7 03:45:44 10° S 03:50:11 78° E 03:54:42 10° NNE
MSX 4.3 03:45:23 10° N 03:50:39 39° WNW 03:51:32 37° W
STARLINK-1141 3.4 03:51:24 54° NNE 03:51:24 54° NNE 03:54:19 10° ENE
IDEFIX/ARIANE 42P 3.8 03:47:04 10° N 03:50:26 24° NW 03:50:26 24° NW
STARLINK-1150 3.9 03:52:13 36° NE 03:52:13 36° NE 03:54:09 10° ENE
Cosmos 1934 Rocket 4.4 03:45:59 10° NNW 03:51:45 40° W 03:57:33 10° SSW
STARLINK-1163 3.8 03:53:18 37° NE 03:53:18 37° NE 03:55:18 10° ENE
Meteor 1-27 4.5 03:47:32 10° S 03:53:02 70° E 03:58:35 10° NNE
STARLINK-1140 3.3 03:53:17 54° N 03:53:17 54° N 03:56:17 10° ENE
STARLINK-1173 3.7 03:55:04 39° NE 03:55:04 39° NE 03:57:08 10° ENE
STARLINK-1177 3.6 03:55:38 39° NNE 03:55:38 39° NNE 03:57:45 10° ENE
STARLINK-1156 3.3 03:55:12 54° N 03:55:12 54° N 03:58:18 10° ENE
Cosmos 1992 Rocket 4.4 03:55:38 38° W 03:55:45 38° WSW 04:00:34 10° S
STARLINK-1167 3.6 03:57:02 40° NNE 03:57:02 40° NNE 03:59:12 10° ENE
STARLINK-1148 3.2 03:57:08 54° N 03:57:09 54° N 04:00:19 10° ENE
STARLINK-1158 3.2 03:59:03 53° NNW 03:59:09 54° N 04:02:19 10° ENE
Cosmos 1356 Rocket 3.3 03:58:21 46° WSW 03:59:10 56° WNW 04:03:13 10° N
Cosmos 1633 3.7 03:55:40 10° N 03:59:11 45° ENE 04:02:41 10° SSE
STARLINK-1136 3.3 04:01:52 43° NNE 04:01:52 43° NNE 04:04:13 10° ENE
Cosmos 2251 Rocket 3.6 04:01:11 29° SW 04:03:44 55° WNW 04:08:59 10° NNE
Cosmos 2237 Rocket 3.1 04:03:02 27° WNW 04:04:02 28° NW 04:08:53 10° NNE
Cosmos 1455 4.2 04:06:37 15° NNW 04:06:37 15° NNW 04:07:37 10° NNW
COSMO-SKYMED 1 2.5 04:01:39 10° S 04:05:58 68° WSW 04:10:19 10° NNW
Aureole 2 Rocket 2.2 04:05:17 29° NNW 04:06:37 70° ENE 04:09:43 10° SSE
BREEZE M DEB (TANK) 2.9 04:06:13 43° W 04:07:14 80° S 04:14:21 10° E
Meteor 1-31 Rocket 2.9 04:03:56 10° N 04:07:36 46° WNW 04:08:25 39° WSW
Cosmos 921 Rocket 3.2 04:05:51 10° NNW 04:10:20 76° ENE 04:14:43 10° SSE
Cosmos 1605 Rocket 4.3 04:06:09 10° NNW 04:11:58 42° W 04:17:41 10° SSW
USA 116 3.2 04:09:04 10° SSE 04:12:15 78° ENE 04:15:23 10° NNW
NOSS 2-1 (C) 3.3 04:12:26 40° W 04:13:17 50° NW 04:17:08 10° NE
Cosmos 2219 Rocket 4.0 04:14:45 14° NW 04:16:09 15° NNW 04:19:21 10° N
GEOS 3 Rocket 3.6 04:12:02 10° NE 04:17:19 70° NW 04:21:26 17° WSW
NOSS 2-1 (D) 3.4 04:16:24 36° W 04:17:21 46° NW 04:21:11 10° NE
ATLAS 2AS CENTAUR R/B 4.0 04:10:42 10° NW 04:18:01 40° NNE 04:24:52 10° E
CZ-4B R/B 4.4 04:14:32 10° N 04:18:33 41° WNW 04:21:31 17° SW
Cosmos 2016 Rocket 4.4 04:13:12 10° N 04:19:24 69° ENE 04:25:40 10° SSE
Cosmos 2221 2.4 04:17:50 10° SSW 04:22:05 66° WNW 04:26:23 10° N
SJ-12 3.8 04:18:06 10° N 04:22:15 77° WNW 04:26:23 10° SSW
MOS 1-B 4.4 04:18:36 10° NNE 04:24:28 83° ESE 04:30:17 10° SSW
Cosmos 1869 3.2 04:23:06 10° S 04:27:07 87° W 04:31:07 10° N
STARLINK-1170 3.1 04:27:03 33° NW 04:27:45 43° N 04:30:19 10° ENE
METEOR-M 4.1 04:22:30 10° NNE 04:27:53 81° WNW 04:33:13 10° SSW
Meteor 2-10 Rocket 4.4 04:27:19 19° WSW 04:30:00 29° WNW 04:34:30 10° N
Helios 1A Rocket 4.3 04:29:04 10° NNE 04:33:03 42° E 04:36:59 10° S
Cosmos 1943 Rocket 2.7 04:31:46 10° NW 04:36:46 36° WSW 04:41:43 10° S
Cosmos 1238 Rocket 3.8 04:32:12 10° N 04:38:38 86° W 04:44:10 10° S
Cosmos 1727 Rocket 4.1 04:34:36 10° SSW 04:40:34 49° WNW 04:46:35 10° N
Lacrosse 5 2.6 04:38:34 18° WNW 04:41:46 36° SW 04:46:22 10° SSE
STARLINK-1162 3.4 04:40:54 21° WNW 04:42:43 49° N 04:45:47 10° E
ADEOS Rocket 3.2 04:37:12 10° SSE 04:43:26 84° WSW 04:50:26 10° NNW
STARLINK-1157 3.4 04:42:33 20° WNW 04:44:26 49° N 04:47:31 10° E
CZ-2C R/B 3.7 04:40:55 10° N 04:44:50 22° WNW 04:47:45 14° W
Cosmos 482 Debris 3.3 04:44:58 29° WSW 04:45:21 33° SSW 04:47:02 10° SE
SL-16 R/B 3.0 04:41:35 15° WSW 04:45:39 33° NW 04:50:46 10° NNE
STARLINK-1159 3.4 04:44:29 19° WNW 04:46:27 49° N 04:49:31 10° E
STARLINK-1171 3.4 04:46:21 18° WNW 04:48:24 50° N 04:51:29 10° E
Cosmos 2173 Rocket 4.1 04:42:27 10° NNW 04:48:37 56° W 04:54:40 10° SSW
STARLINK-1179 3.0 04:47:55 20° WNW 04:49:25 44° N 04:51:54 10° E
STARLINK-1176 3.0 04:48:29 19° WNW 04:50:01 44° N 04:52:29 10° E
STARLINK-1155 3.4 04:48:08 18° WNW 04:50:16 50° N 04:53:20 10° E
STARLINK-1153 3.2 04:49:50 17° WNW 04:51:48 48° N 04:54:40 10° E
STARLINK-1180 3.3 04:50:03 17° WNW 04:52:03 48° N 04:54:55 10° E
STARLINK-1166 3.4 04:50:07 17° WNW 04:52:20 50° N 04:55:25 10° E
STARLINK-1174 3.2 04:50:31 17° WNW 04:52:31 48° N 04:55:23 10° E
STARLINK-1139 3.2 04:50:44 17° WNW 04:52:45 48° N 04:55:37 10° E
STARLINK-1133 3.2 04:50:55 17° WNW 04:52:57 48° N 04:55:48 10° E
STARLINK-1151 3.2 04:51:10 17° WNW 04:53:12 48° N 04:56:03 10° E
Cosmos 1805 Rocket 3.7 04:49:16 10° NNW 04:53:28 50° W 04:57:39 10° S
STARLINK-1160 3.2 04:51:48 17° WNW 04:53:51 48° N 04:56:43 10° E
STARLINK-1161 3.2 04:52:01 16° WNW 04:54:05 48° N 04:56:57 10° E
STARLINK-1165 3.4 04:51:54 16° WNW 04:54:12 50° N 04:57:17 10° E
STARLINK-1145 3.2 04:52:14 16° WNW 04:54:19 48° N 04:57:11 10° E
Cosmos 407 Rocket 3.5 04:49:05 10° SSW 04:54:24 70° WNW 04:59:42 10° NNE
STARLINK-1172 3.2 04:52:25 16° WNW 04:54:31 48° N 04:57:23 10° E
STARLINK-1182 3.2 04:52:54 16° WNW 04:55:01 48° N 04:57:52 10° E
STARLINK-1164 3.2 04:53:06 16° WNW 04:55:13 48° N 04:58:05 10° E
STARLINK-1168 3.2 04:53:18 16° WNW 04:55:26 49° N 04:58:18 10° E
TELKOM 3 2.6 04:54:11 20° W 04:55:30 81° S 04:57:36 10° E
FENGYUN 3A 3.9 04:50:17 10° N 04:55:31 50° WNW 05:00:45 10° SW
STARLINK-1169 3.4 04:53:45 15° WNW 04:56:07 51° N 04:59:12 10° E
STARLINK-1183 3.2 04:53:58 16° WNW 04:56:07 49° N 04:58:58 10° E
STARLINK-1181 3.2 04:54:10 16° WNW 04:56:20 49° N 04:59:11 10° E
STARLINK-1196 3.2 04:54:49 15° WNW 04:57:01 49° N 04:59:53 10° E
Cosmos 2369 Rocket 2.9 04:52:10 10° NW 04:57:14 33° WSW 05:02:16 10° SSW
STARLINK-1186 3.2 04:55:16 15° WNW 04:57:28 49° N 05:00:20 10° E
Cosmos 1862 3.2 04:53:31 10° NNW 04:57:28 67° W 05:01:24 10° S
STARLINK-1185 3.2 04:55:29 15° WNW 04:57:42 49° N 05:00:34 10° E
STARLINK-1175 3.2 04:55:42 15° WNW 04:57:56 49° N 05:00:47 10° E
COSMOS 2455 4.4 04:52:38 10° NNW 04:57:59 32° NE 05:03:19 10° E
STARLINK-1178 3.4 04:55:35 15° WNW 04:58:03 51° N 05:01:09 10° E
STARLINK-1147 3.2 04:55:54 15° WNW 04:58:08 49° N 05:01:00 10° E
STARLINK-1146 3.2 04:56:07 15° WNW 04:58:22 49° N 05:01:15 10° E
STARLINK-1152 3.2 04:56:20 15° WNW 04:58:35 49° N 05:01:27 10° E
STARLINK-1195 3.2 04:56:33 15° WNW 04:58:49 49° N 05:01:41 10° E
STARLINK-1137 3.2 04:56:47 15° WNW 04:59:04 49° N 05:01:56 10° E
STARLINK-1142 3.2 04:57:00 15° WNW 04:59:17 49° N 05:02:09 10° E
STARLINK-1127 3.2 04:57:12 14° WNW 04:59:29 49° N 05:02:21 10° E
STARLINK-1184 3.2 04:57:26 14° WNW 04:59:44 49° N 05:02:36 10° E
STARLINK-1120 3.4 04:57:20 14° WNW 04:59:53 51° N 05:02:58 10° E
H-2A R/B 3.1 04:56:09 10° NNE 04:59:55 68° ESE 05:03:38 10° S
STARLINK-1193 3.2 04:57:39 14° WNW 04:59:57 49° N 05:02:49 10° E
STARLINK-1194 3.2 04:57:51 14° WNW 05:00:10 49° N 05:03:02 10° E
USA 215 3.8 04:54:23 10° E 05:00:42 52° N 05:07:00 10° WNW
Cosmos 2100 Rocket 4.3 04:54:54 10° NNW 05:00:44 43° W 05:06:29 10° SSW
Sich 1 3.0 04:56:34 10° NNW 05:00:46 57° W 05:04:58 10° S
CZ-4B DEB 4.3 04:55:40 10° N 05:01:04 58° WNW 05:06:24 10° SW
Okean O Rocket 1.5 04:56:44 10° N 05:01:08 72° WNW 05:05:28 10° SSW
SJ-7 4.4 04:56:59 10° N 05:01:15 76° WNW 05:05:27 10° SSW
Cosmos 1140 Rocket 3.5 04:56:04 10° SSW 05:01:19 82° WNW 05:06:37 10° NNE
Cosmos 1603 3.7 04:55:43 10° SW 05:01:24 65° WNW 05:07:05 10° NNE
STARLINK-1131 3.4 04:59:19 13° WNW 05:01:56 52° N 05:05:02 10° E
STARLINK-1190 3.3 05:01:09 13° WNW 05:03:51 52° N 05:06:57 10° E
NOSS 2-1 (E) 4.4 05:01:57 12° W 05:04:42 27° NNW 05:08:20 10° NNE
Cosmos 1943 3.2 05:02:57 10° SW 05:08:34 72° WNW 05:14:13 10° NNE
Cosmos 2061 Rocket 4.1 05:02:31 10° NNW 05:08:40 55° W 05:14:43 10° SSW
CZ-4B R/B 3.1 05:07:31 10° NNE 05:12:51 68° WNW 05:18:05 10° SSW
Cosmos 1484 Rocket 4.4 05:11:39 10° NNW 05:14:10 17° WNW 05:16:42 10° WSW
STARLINK-1070 4.0 05:12:24 10° SW 05:15:10 40° SSE 05:17:57 10° ENE
STARLINK-1124 3.6 05:13:07 10° SW 05:15:57 48° SSE 05:18:48 10° ENE
CZ-4 R/B 4.4 05:12:47 10° NE 05:15:57 22° E 05:19:03 10° SE
STARLINK-1066 3.9 05:13:30 10° SW 05:16:17 41° SSE 05:19:05 10° ENE
Cosmos 1190 Rocket 4.1 05:11:13 10° SW 05:16:24 55° WNW 05:21:39 10° NNE
STARLINK-1081 3.9 05:13:44 10° SW 05:16:32 41° SSE 05:19:20 10° ENE
STARLINK-1069 3.9 05:14:11 10° SW 05:16:58 42° SSE 05:19:46 10° ENE
STARLINK-1085 3.9 05:14:23 10° SW 05:17:11 42° SSE 05:19:59 10° ENE
STARLINK-1086 3.9 05:14:37 10° SW 05:17:24 42° SSE 05:20:13 10° ENE
STARLINK-1095 3.9 05:14:51 10° SW 05:17:38 42° SSE 05:20:27 10° ENE
STARLINK-1077 3.9 05:15:05 10° SW 05:17:52 42° SSE 05:20:41 10° ENE
ALOS 3.2 05:14:07 10° N 05:18:04 27° WNW 05:22:00 10° WSW
STARLINK-1075 3.9 05:15:18 10° SW 05:18:06 43° SSE 05:20:54 10° ENE
STARLINK-1093 3.9 05:15:31 10° SW 05:18:19 43° SSE 05:21:08 10° ENE
STARLINK-1074 3.9 05:15:45 10° SW 05:18:32 43° SSE 05:21:21 10° ENE
STARLINK-1087 3.9 05:15:58 10° SW 05:18:46 43° SSE 05:21:34 10° ENE
STARLINK-1088 3.8 05:16:11 10° SW 05:18:58 43° SSE 05:21:47 10° ENE
STARLINK-1115 3.8 05:16:23 10° SW 05:19:12 43° SSE 05:22:00 10° ENE
STARLINK-1076 3.8 05:16:37 10° SW 05:19:25 44° SSE 05:22:14 10° ENE
STARLINK-1092 3.8 05:16:51 10° SW 05:19:39 44° SSE 05:22:28 10° ENE
STARLINK-1080 3.8 05:17:05 10° SW 05:19:53 44° SSE 05:22:42 10° ENE
STARLINK-1090 3.8 05:17:17 10° SW 05:20:06 44° SSE 05:22:55 10° ENE
STARLINK-1149 2.8 05:17:39 10° WNW 05:20:15 54° N 05:22:51 10° E
STARLINK-1089 3.8 05:17:30 10° SW 05:20:18 44° SSE 05:23:08 10° ENE
H-2A R/B 4.3 05:18:05 10° NNW 05:20:21 14° WNW 05:22:36 10° W
CZ-4C R/B 3.8 05:15:27 10° WNW 05:20:25 27° N 05:26:09 10° NE
STARLINK-1107 3.8 05:17:45 10° SW 05:20:33 44° SSE 05:23:23 10° ENE
STARLINK-1109 3.8 05:17:58 10° SW 05:20:46 45° SSE 05:23:36 10° ENE
STARLINK-1091 3.8 05:18:12 10° SW 05:21:00 45° SSE 05:23:50 10° ENE
STARLINK-1072 3.8 05:18:24 10° SW 05:21:13 45° SSE 05:24:03 10° ENE
STARLINK-1129 3.3 05:18:15 10° WNW 05:21:25 57° N 05:24:34 10° E
STARLINK-1096 3.8 05:18:38 10° SW 05:21:26 45° SSE 05:24:16 10° ENE
STARLINK-1079 3.8 05:18:51 10° SW 05:21:40 45° SSE 05:24:30 10° ENE
STARLINK-1116 3.8 05:19:05 10° SW 05:21:54 45° SSE 05:24:44 10° ENE
STARLINK-1094 3.7 05:19:31 10° SW 05:22:20 46° SSE 05:25:10 10° ENE
STARLINK-1117 3.7 05:19:44 10° SW 05:22:34 46° SSE 05:25:24 10° ENE
Envisat 3.7 05:17:37 10° NNE 05:22:41 61° E 05:27:42 10° S
STARLINK-1078 3.7 05:19:58 10° SW 05:22:48 46° SSE 05:25:38 10° ENE
AQUARIUS 4.3 05:18:21 10° NNE 05:22:53 83° ESE 05:27:24 10° SSW
STARLINK-1108 3.7 05:20:11 10° SW 05:23:00 46° SSE 05:25:50 10° ENE
STARLINK-1134 3.3 05:19:58 10° WNW 05:23:08 57° N 05:26:18 10° E
STARLINK-1132 2.9 05:20:33 10° WNW 05:23:13 56° NNE 05:25:52 10° E
STARLINK-1071 3.7 05:20:25 10° SW 05:23:13 46° SSE 05:26:03 10° ENE
STARLINK-1110 3.7 05:20:39 10° SW 05:23:29 47° SSE 05:26:19 10° ENE
ATLAS CENTAUR R/B 3.0 05:20:03 10° WNW 05:23:34 21° NNW 05:26:54 10° NNE
Cosmos 1656 Rocket 4.2 05:18:32 10° NW 05:23:51 42° WSW 05:29:09 10° S
STARLINK-1122 3.7 05:21:05 10° SW 05:23:55 47° SSE 05:26:45 10° ENE
STARLINK-1126 3.7 05:21:18 10° SW 05:24:08 47° SSE 05:26:58 10° ENE
STARLINK-1082 3.7 05:21:32 10° SW 05:24:22 47° SSE 05:27:13 10° ENE
STARLINK-1100 3.7 05:21:45 10° SW 05:24:35 48° SSE 05:27:26 10° ENE
STARLINK-1083 3.7 05:21:59 10° SW 05:24:48 48° SSE 05:27:39 10° ENE
Cosmos 1725 Rocket 4.2 05:20:11 10° NNW 05:26:13 52° W 05:32:15 10° SSW
